Weather History for KMOT - September, 2012

Change the Weather History Date:

Friday, September 7, 2012

  Actual Average Record
Temperature  
Mean Temperature 59 °F 62 °F  
Max Temperature 73 °F 74 °F 100 °F (1931)
Min Temperature 44 °F 49 °F 31 °F (1929)
Degree Days  
Heating Degree Days 6 5  
Month to date heating degree days 13 31  
Since 1 July heating degree days 26 102  
Cooling Degree Days 0 2  
Month to date cooling degree days 27 15  
Year to date cooling degree days 580 426  
Growing Degree Days 8 (Base 50)    
Moisture  
Dew Point 41 °F    
Average Humidity 58    
Maximum Humidity 86    
Minimum Humidity 29    
Precipitation  
Precipitation 0.00 in 0.05 in 0.33 in (1999)
Month to date precipitation 0.08 0.36  
Year to date precipitation 10.83 13.80  
Sea Level Pressure  
Sea Level Pressure 30.15 in    
Wind  
Wind Speed 10 mph (West)    
Max Wind Speed 18 mph    
Max Gust Speed 26 mph    
Visibility 10 miles    
Events      
T = Trace of Precipitation, MM = Missing Value Source: NWS Daily Summary

Daily Weather History Graph

Daily Weather History Graph

Search for Another Location

Airport or City:

Trip Planner

Search our weather history database for the weather conditions in past years. The results will help you decide how hot, cold, wet, or windy it might be!

Date:

Astronomy

Sep. 07, 2012 Rise Set
Actual Time 7:11 AM CDT 8:13 PM CDT
Civil Twilight 6:39 AM CDT 8:44 PM CDT
Nautical Twilight 6:01 AM CDT 9:22 PM CDT
Astronomical Twilight 5:20 AM CDT 10:03 PM CDT
Moon 11:35 PM CDT (9/7) 2:39 PM CDT (9/7)
Length of Visible Light 14h 04m
Length of Day
13h 01m
Waning Gibbous, 58% of the Moon is Illuminated
Sep 7
Waning Gibbous
Sep 8
Last Quarter
Sep 15
New
Sep 22
First Quarter
Sep 29
Full

Hourly Weather History & Observations

Time (CDT) Temp. Windchill Dew Point Humidity Pressure Visibility Wind Dir Wind Speed Gust Speed Precip Events Conditions
12:54 AM 50.0 °F - 42.1 °F 74% 30.12 in 10.0 mi WNW 9.2 mph - N/A   Clear
1:54 AM 48.9 °F - 42.1 °F 77% 30.12 in 10.0 mi West 9.2 mph - N/A   Clear
2:54 AM 48.9 °F - 42.1 °F 77% 30.13 in 10.0 mi West 10.4 mph - N/A   Clear
3:54 AM 46.0 °F 43.9 °F 41.0 °F 83% 30.14 in 10.0 mi WSW 4.6 mph - N/A   Clear
4:54 AM 46.9 °F - 41.0 °F 80% 30.16 in 10.0 mi West 9.2 mph - N/A   Clear
5:54 AM 46.0 °F 41.0 °F 41.0 °F 83% 30.17 in 10.0 mi West 10.4 mph - N/A   Clear
6:54 AM 44.1 °F 40.1 °F 39.9 °F 85% 30.19 in 10.0 mi West 6.9 mph - N/A   Clear
7:54 AM 46.9 °F - 42.1 °F 83% 30.20 in 10.0 mi West 9.2 mph - N/A   Clear
8:54 AM 48.9 °F - 43.0 °F 80% 30.22 in 10.0 mi West 10.4 mph - N/A   Mostly Cloudy
9:54 AM 54.0 °F - 45.0 °F 72% 30.22 in 10.0 mi WNW 10.4 mph - N/A   Overcast
10:54 AM 57.9 °F - 45.0 °F 62% 30.22 in 10.0 mi WNW 10.4 mph - N/A   Overcast
11:54 AM 61.0 °F - 43.0 °F 52% 30.22 in 10.0 mi NW 13.8 mph 19.6 mph N/A   Overcast
12:54 PM 63.0 °F - 39.9 °F 43% 30.21 in 10.0 mi WNW 10.4 mph 19.6 mph N/A   Scattered Clouds
1:54 PM 66.9 °F - 39.9 °F 37% 30.20 in 10.0 mi WNW 10.4 mph 20.7 mph N/A   Scattered Clouds
2:54 PM 66.9 °F - 39.0 °F 36% 30.17 in 10.0 mi West 12.7 mph 19.6 mph N/A   Clear
3:54 PM 70.0 °F - 39.0 °F 32% 30.16 in 10.0 mi West 11.5 mph 23.0 mph N/A   Clear
4:54 PM 71.1 °F - 37.9 °F 30% 30.14 in 10.0 mi WNW 15.0 mph 21.9 mph N/A   Clear
5:54 PM 72.0 °F - 37.9 °F 29% 30.12 in 10.0 mi WNW 12.7 mph - N/A   Clear
6:54 PM 72.0 °F - 37.9 °F 29% 30.12 in 10.0 mi WNW 11.5 mph - N/A   Clear
7:54 PM 64.9 °F - 39.0 °F 39% 30.11 in 10.0 mi WNW 6.9 mph - N/A   Clear
8:54 PM 60.1 °F - 39.0 °F 46% 30.10 in 10.0 mi SW 5.8 mph - N/A   Clear
9:54 PM 57.9 °F - 39.9 °F 51% 30.10 in 10.0 mi SW 10.4 mph - N/A   Clear
10:54 PM 55.9 °F - 39.9 °F 55% 30.09 in 10.0 mi SW 10.4 mph - N/A   Clear
11:54 PM 55.9 °F - 39.0 °F 53% 30.08 in 10.0 mi SW 10.4 mph - N/A   Clear